Notices

What's New in latest Release from April 7th, 2021:

- Updated Glossary, including Speed of Maximum Gust, and Total Hourly Precipitation

- Updated national and regional climate services offices contacts and prices information

- Addition of station inventory lists for 1981-2010, 1971-2000, and 1961-1990 Normals.

If you haven't already, please take our survey and provide feedback about our website: https://eccc.sondage-survey.ca/f/LanguageSelection.aspx?s=442ca660-fcf1-47c0-95a9-59707d6fd709

Hourly Data Report for July 04, 2003

TORONTO CITY
ONTARIO

43°40'00.000" N
79°24'00.000" W
112.50 m
6158355
71508
XTO

Download Data

Hourly Data (July 2003)
Hourly Data Report for July 4, 2003
TIME
LST
Temp Definition
°C
Dew Point Definition
°C
Rel Hum Definition
%
Precip. Amount Definition
mm

Wind Dir Definition
10's deg

Wind Spd Definition
km/h
Visibility Definition
km
Stn Press Definition
kPa
Hmdx Definition


Wind Chill Definition


Weather Definition


00:00 21.7 16.9 74   LegendMM LegendMM LegendMM 99.41 27   LegendNANA
01:00 21.3 16.9 76   LegendMM LegendMM LegendMM 99.39 27   LegendNANA
02:00 22.4 16.7 70   LegendMM LegendMM LegendMM 99.40 27   LegendNANA
03:00 23.7 15.7 61   LegendMM LegendMM LegendMM 99.38 28   LegendNANA
04:00 22.8 15.9 65   LegendMM LegendMM LegendMM 99.41 27   LegendNANA
05:00 21.7 16.3 71   LegendMM LegendMM LegendMM 99.43 27   LegendNANA
06:00 22.8 17.1 70   LegendMM LegendMM LegendMM 99.45 28   LegendNANA
07:00 24.6 18.1 67   LegendMM LegendMM LegendMM 99.49 31   LegendNANA
08:00 26.2 18.3 62   LegendMM LegendMM LegendMM 99.50 32   LegendNANA
09:00 27.7 18.8 58   LegendMM LegendMM LegendMM 99.53 34   LegendNANA
10:00 29.5 20.3 58   LegendMM LegendMM LegendMM 99.50 37   LegendNANA
11:00 28.0 19.0 58   LegendMM LegendMM LegendMM 99.50 35   LegendNANA
12:00 28.9 21.5 64   LegendMM LegendMM LegendMM 99.51 38   LegendNANA
13:00 30.6 22.1 61   LegendMM LegendMM LegendMM 99.46 40   LegendNANA
14:00 30.3 21.7 60   LegendMM LegendMM LegendMM 99.43 39   LegendNANA
15:00 30.1 19.8 54   LegendMM LegendMM LegendMM 99.35 38   LegendNANA
16:00 29.1 21.1 62   LegendMM LegendMM LegendMM 99.29 38   LegendNANA
17:00 29.7 21.8 63   LegendMM LegendMM LegendMM 99.17 39   LegendNANA
18:00 29.5 18.6 52   LegendMM LegendMM LegendMM 99.19 36   LegendNANA
19:00 29.4 19.0 54   LegendMM LegendMM LegendMM 99.18 36   LegendNANA
20:00 25.7 18.2 63   LegendMM LegendMM LegendMM 99.26 32   LegendNANA
21:00 24.7 19.2 71   LegendMM LegendMM LegendMM 99.37 32   LegendNANA
22:00 25.6 19.5 69   LegendMM LegendMM LegendMM 99.36 33   LegendNANA
23:00 24.9 19.2 71   LegendMM LegendMM LegendMM 99.35 32   LegendNANA

Notes on Data Quality.

Legend

  • E = Estimated
  • M = Missing
  • NA = Not Available*
  • [empty] = Indicates an unobserved value
Date modified: